Location: Arapaho Elementary School
(32.9607°N, 96.7625°W)
Time: 03:32:30
(UTC+00:00)

CZ-2C R/B - Pass Details

Date: 03 July 2022
Orbit: 783 x 871 km, 98.2° (Epoch: 14 August)

Event Time Altitude Azimuth Distance (km) Brightness Sun altitude
Rises 10:01:06 0° 135° (SE) 3,401 5.9 -15.0°
Reaches altitude 10° 10:03:48 10° 123° (ESE) 2,481 5.3 -14.6°
Maximum altitude 10:08:16 26° 68° (ENE) 1,636 5.1 -13.9°
Drops below altitude 10° 10:12:49 10° 14° (NNE) 2,518 6.0 -13.1°
Sets 10:15:34 0° 3° (N) 3,463 6.5 -12.7°
